| time (UTC) | temp C | wind direction | speed KPH | gust KPH | rain 1hr cm | rain 24hr cm | rain mn cm | humidity % | barometer mb |
| 20260505075520 | 14 | 0.0 | 0.0 | 0.00 | 0.00 | 0.00 | 79 | 1018.3 | |
| 20260505074520 | 14 | 0.0 | 0.0 | 0.00 | 0.00 | 0.00 | 79 | 1018.2 | |
| 20260505073540 | 15 | 0.0 | 1.6 | 0.00 | 0.00 | 0.00 | 78 | 1018.2 | |
| 20260505072541 | 15 | 0.0 | 0.0 | 0.00 | 0.00 | 0.00 | 77 | 1018.1 | |
| 20260505071541 | 15 | 0.0 | 0.0 | 0.00 | 0.00 | 0.00 | 76 | 1018.1 | |
| 20260505070520 | 15 | 0.0 | 1.6 | 0.00 | 0.00 | 0.00 | 75 | 1018.1 | |
| 20260505065522 | 16 | 0.0 | 1.6 | 0.00 | 0.00 | 0.00 | 75 | 1018.1 | |
| 20260505064520 | 16 | 0.0 | 4.8 | 0.00 | 0.00 | 0.00 | 74 | 1018.0 | |
| 20260505063520 | 16 | 0.0 | 1.6 | 0.00 | 0.00 | 0.00 | 74 | 1018.0 | |
| 20260505062601 | 16 | 0.0 | 0.0 | 0.00 | 0.00 | 0.00 | 73 | 1017.9 | |
| 20260505061520 | 16 | 0.0 | 1.6 | 0.00 | 0.00 | 0.00 | 73 | 1018.1 | |
| 20260505060522 | 16 | 0.0 | 0.0 | 0.00 | 0.00 | 0.00 | 72 | 1018.0 | |
| 20260505055520 | 17 | 0.0 | 4.8 | 0.00 | 0.00 | 0.00 | 72 | 1018.1 | |
| 20260505054520 | 17 | 0.0 | 1.6 | 0.00 | 0.00 | 0.00 | 71 | 1018.1 | |
| 20260505053522 | 17 | 0.0 | 1.6 | 0.00 | 0.00 | 0.00 | 71 | 1018.1 | |
| 20260505052530 | 17 | 0.0 | 1.6 | 0.00 | 0.00 | 0.00 | 70 | 1018.0 | |
| 20260505052023 | 17 | 0.0 | 3.2 | 0.00 | 0.00 | 0.00 | 70 | 1018.1 | |
| 20260505051040 | 17 | 0.0 | 1.6 | 0.00 | 0.00 | 0.00 | 70 | 1018.1 | |
| 20260505041022 | 18 | 0.0 | 1.6 | 0.00 | 0.00 | 0.00 | 65 | 1018.2 | |
| 20260505040045 | 18 | 0.0 | 6.4 | 0.00 | 0.00 | 0.00 | 65 | 1018.1 | |
| 20260505035021 | 18 | 0.0 | 4.8 | 0.00 | 0.00 | 0.00 | 64 | 1018.1 | |
| 20260505034521 | 19 | 0.0 | 3.2 | 0.00 | 0.00 | 0.00 | 63 | 1018.1 | |
| 20260505033521 | 19 | 0.0 | 3.2 | 0.00 | 0.00 | 0.00 | 62 | 1018.1 | |
| 20260505032521 | 19 | 0.0 | 3.2 | 0.00 | 0.00 | 0.00 | 61 | 1018.0 | |
| 20260505031521 | 20 | 0.0 | 3.2 | 0.00 | 0.00 | 0.00 | 59 | 1018.1 | |
| 20260505030520 | 20 | 45 | 1.6 | 6.4 | 0.00 | 0.00 | 0.00 | 58 | 1018.1 |
| 20260505025521 | 20 | 0.0 | 3.2 | 0.00 | 0.00 | 0.00 | 55 | 1018.0 | |
| 20260505024521 | 20 | 68 | 1.6 | 16.1 | 0.00 | 0.00 | 0.00 | 53 | 1018.0 |
| 20260505023521 | 20 | 0.0 | 4.8 | 0.00 | 0.00 | 0.00 | 51 | 1018.0 | |
| 20260505022521 | 20 | 0.0 | 3.2 | 0.00 | 0.00 | 0.00 | 50 | 1017.8 | |
| 20260505021521 | 21 | 0.0 | 3.2 | 0.00 | 0.00 | 0.00 | 49 | 1017.7 | |
| 20260505020521 | 21 | 0.0 | 3.2 | 0.00 | 0.00 | 0.00 | 49 | 1017.6 | |
| 20260505015521 | 21 | 0.0 | 4.8 | 0.00 | 0.00 | 0.00 | 48 | 1017.6 | |
| 20260505014521 | 21 | 0.0 | 4.8 | 0.00 | 0.00 | 0.00 | 48 | 1017.4 | |
| 20260505013521 | 21 | 0.0 | 3.2 | 0.00 | 0.00 | 0.00 | 47 | 1017.3 | |
| 20260505012522 | 21 | 45 | 1.6 | 9.7 | 0.00 | 0.00 | 0.00 | 46 | 1017.2 |
| 20260505011521 | 21 | 0.0 | 3.2 | 0.00 | 0.00 | 0.00 | 45 | 1017.1 | |
| 20260505010521 | 21 | 0.0 | 4.8 | 0.00 | 0.00 | 0.00 | 45 | 1017.0 | |
| 20260505005521 | 21 | 0.0 | 1.6 | 0.00 | 0.00 | 0.00 | 45 | 1017.0 | |
| 20260505004521 | 21 | 0.0 | 0.0 | 0.00 | 0.00 | 0.00 | 45 | 1016.7 | |
| 20260505003521 | 21 | 0.0 | 1.6 | 0.00 | 0.00 | 0.00 | 46 | 1016.6 | |
| 20260505002521 | 21 | 0.0 | 0.0 | 0.00 | 0.00 | 0.00 | 47 | 1016.4 | |
| 20260505001521 | 22 | 0.0 | 0.0 | 0.00 | 0.00 | 0.00 | 47 | 1016.3 | |
| 20260505000520 | 23 | 0.0 | 0.0 | 0.00 | 0.00 | 0.00 | 45 | 1016.3 | |
| 20260504235521 | 23 | 0.0 | 1.6 | 0.00 | 0.00 | 0.00 | 40 | 1016.1 | |
| 20260504234521 | 23 | 0.0 | 1.6 | 0.00 | 0.00 | 0.00 | 40 | 1016.1 | |
| 20260504233521 | 24 | 0.0 | 1.6 | 0.00 | 0.00 | 0.00 | 39 | 1016.0 | |
| 20260504232520 | 25 | 0.0 | 1.6 | 0.00 | 0.00 | 0.00 | 39 | 1016.1 | |
| 20260504231538 | 25 | 0.0 | 1.6 | 0.00 | 0.00 | 0.00 | 38 | 1016.1 | |
| 20260504230540 | 25 | 0.0 | 4.8 | 0.00 | 0.00 | 0.00 | 37 | 1016.0 | |
| 20260504225520 | 25 | 0.0 | 3.2 | 0.00 | 0.00 | 0.00 | 37 | 1015.9 | |
| 20260504224521 | 25 | 0.0 | 4.8 | 0.00 | 0.00 | 0.00 | 36 | 1016.0 | |
| 20260504223521 | 25 | 45 | 1.6 | 11.3 | 0.00 | 0.00 | 0.00 | 36 | 1016.1 |
| 20260504222520 | 26 | 0.0 | 3.2 | 0.00 | 0.00 | 0.00 | 36 | 1016.1 | |
| 20260504221522 | 26 | 0.0 | 3.2 | 0.00 | 0.00 | 0.00 | 36 | 1016.0 | |
| 20260504220521 | 26 | 68 | 1.6 | 9.7 | 0.00 | 0.00 | 0.00 | 36 | 1016.1 |
| 20260504215521 | 26 | 45 | 1.6 | 6.4 | 0.00 | 0.00 | 0.00 | 35 | 1016.0 |
| 20260504214520 | 26 | 68 | 1.6 | 4.8 | 0.00 | 0.00 | 0.00 | 36 | 1016.0 |
| 20260504213522 | 26 | 0.0 | 4.8 | 0.00 | 0.00 | 0.00 | 35 | 1016.0 | |
| 20260504212521 | 27 | 0.0 | 3.2 | 0.00 | 0.00 | 0.00 | 35 | 1016.0 | |
| 20260504211521 | 27 | 0.0 | 3.2 | 0.00 | 0.00 | 0.00 | 35 | 1016.0 | |
| 20260504210540 | 27 | 45 | 1.6 | 12.9 | 0.00 | 0.00 | 0.00 | 33 | 1016.1 |
| 20260504205542 | 27 | 45 | 1.6 | 6.4 | 0.00 | 0.00 | 0.00 | 32 | 1016.2 |
| 20260504204522 | 28 | 45 | 1.6 | 14.5 | 0.00 | 0.00 | 0.00 | 32 | 1016.2 |
| 20260504203521 | 27 | 45 | 1.6 | 12.9 | 0.00 | 0.00 | 0.00 | 34 | 1016.2 |
| 20260504202540 | 28 | 68 | 1.6 | 4.8 | 0.00 | 0.00 | 0.00 | 32 | 1016.5 |
| 20260504201710 | 28 | 0.0 | 4.8 | 0.00 | 0.00 | 0.00 | 31 | 1016.6 | |
| 20260504200520 | 28 | 293 | 1.6 | 6.4 | 0.00 | 0.00 | 0.00 | 31 | 1016.6 |
| 20260504195543 | 28 | 45 | 1.6 | 6.4 | 0.00 | 0.00 | 0.00 | 32 | 1016.6 |
| 20260504194522 | 27 | 45 | 1.6 | 8.0 | 0.00 | 0.00 | 0.00 | 34 | 1016.8 |
| 20260504193541 | 28 | 45 | 1.6 | 4.8 | 0.00 | 0.00 | 0.00 | 31 | 1017.0 |
| 20260504192520 | 28 | 315 | 1.6 | 9.7 | 0.00 | 0.00 | 0.00 | 31 | 1017.1 |
| 20260504191542 | 27 | 45 | 1.6 | 3.2 | 0.00 | 0.00 | 0.00 | 33 | 1017.4 |
| 20260504190522 | 27 | 45 | 1.6 | 8.0 | 0.00 | 0.00 | 0.00 | 31 | 1017.3 |
| 20260504185520 | 27 | 23 | 1.6 | 11.3 | 0.00 | 0.00 | 0.00 | 30 | 1017.4 |
| 20260504184520 | 27 | 23 | 1.6 | 8.0 | 0.00 | 0.00 | 0.00 | 30 | 1017.4 |
| 20260504183522 | 27 | 293 | 1.6 | 3.2 | 0.00 | 0.00 | 0.00 | 31 | 1017.4 |
| 20260504182522 | 26 | 45 | 1.6 | 8.0 | 0.00 | 0.00 | 0.00 | 32 | 1017.6 |
| 20260504181522 | 26 | 248 | 3.2 | 11.3 | 0.00 | 0.00 | 0.00 | 32 | 1017.8 |
| 20260504180522 | 26 | 293 | 1.6 | 8.0 | 0.00 | 0.00 | 0.00 | 32 | 1017.8 |
| 20260504175523 | 26 | 45 | 3.2 | 8.0 | 0.00 | 0.00 | 0.00 | 32 | 1017.9 |
| 20260504174522 | 26 | 68 | 1.6 | 9.7 | 0.00 | 0.00 | 0.00 | 33 | 1018.0 |
| 20260504173522 | 26 | 45 | 1.6 | 6.4 | 0.00 | 0.00 | 0.00 | 34 | 1017.9 |
| 20260504172522 | 26 | 45 | 1.6 | 9.7 | 0.00 | 0.00 | 0.00 | 33 | 1017.9 |
| 20260504171522 | 26 | 338 | 1.6 | 6.4 | 0.00 | 0.00 | 0.00 | 31 | 1018.3 |
| 20260504170542 | 26 | 45 | 1.6 | 4.8 | 0.00 | 0.00 | 0.00 | 32 | 1018.5 |
| 20260504150521 | 23 | 0.0 | 3.2 | 0.00 | 0.00 | 0.00 | 50 | 1019.5 | |
| 20260504140522 | 21 | 0.0 | 3.2 | 0.00 | 0.00 | 0.00 | 57 | 1020.0 | |
| 20260504130522 | 17 | 0.0 | 1.6 | 0.00 | 0.00 | 0.00 | 66 | 1019.8 | |
| 20260504110224 | 7 | 0.0 | 0.0 | 0.00 | 0.00 | 0.00 | 87 | 1020.4 | |
| 20260504100521 | 7 | 0.0 | 0.0 | 0.00 | 0.00 | 0.00 | 85 | 1019.7 | |
| 20260504081522 | 7 | 0.0 | 0.0 | 0.00 | 0.00 | 0.00 | 77 | 1019.9 | |
| 20260504080542 | 8 | 0.0 | 0.0 | 0.00 | 0.00 | 0.00 | 76 | 1019.9 |